When you browse on this site, cookies collect data to enhance your experience and personalize the content and advertising you see.
Visit our Privacy Policy to learn more. By continuing to use the site, you agree to this use of cookies and data.
  • In Lithuania
  • List of Countries
  • For 7 days
  • Water Temperature
  • Satellite Maps
  • Weather Map
  • Weather Widgets
  • user-avatar
    Login

    Hourly Weather Stepanakert

    Today, 24 June, Monday

    Time Temperature Precipitation Wind Pressure Humidity
    00:00 +24°C° 0 mm 2 mps 692 mmHg 67%
    01:00 +24°C° 0 mm 2 mps 692 mmHg 68%
    02:00 +23°C° 0 mm 1 mps 692 mmHg 68%
    03:00 +23°C° 0 mm 1 mps 692 mmHg 68%
    04:00 +24°C° 0 mm 1 mps 692 mmHg 68%
    05:00 +24°C° 0 mm 1 mps 692 mmHg 68%
    06:00 +25°C° 0 mm 1 mps 693 mmHg 67%
    07:00 +26°C° 0 mm 1 mps 693 mmHg 63%
    08:00 +28°C° 0 mm 2 mps 693 mmHg 58%
    09:00 +29°C° 0 mm 2 mps 693 mmHg 51%
    10:00 +30°C° 0 mm 2 mps 693 mmHg 50%
    11:00 +30°C° 0 mm 2 mps 693 mmHg 49%
    12:00 +31°C° 0 mm 2 mps 693 mmHg 48%
    13:00 +31°C° 0 mm 2 mps 692 mmHg 48%
    14:00 +32°C° 0 mm 2 mps 692 mmHg 48%
    15:00 +32°C° 0 mm 2 mps 692 mmHg 48%
    16:00 +31°C° 0 mm 2 mps 692 mmHg 51%
    17:00 +31°C° 0 mm 2 mps 691 mmHg 54%
    18:00 +30°C° 0 mm 1 mps 691 mmHg 57%
    19:00 +29°C° 0 mm 1 mps 692 mmHg 59%
    20:00 +27°C° 0 mm 1 mps 692 mmHg 61%
    21:00 +25°C° 0 mm 1 mps 692 mmHg 63%
    22:00 +25°C° 0 mm 2 mps 692 mmHg 63%
    23:00 +24°C° 0 mm 2 mps 692 mmHg 63%

    Tomorrow, 25 June, Tuesday

    Time Temperature Precipitation Wind Pressure Humidity
    00:00 +24°C° 0 mm 2 mps 692 mmHg 62%
    01:00 +24°C° 0 mm 2 mps 692 mmHg 60%
    02:00 +24°C° 0 mm 2 mps 692 mmHg 59%
    03:00 +23°C° 0 mm 2 mps 692 mmHg 57%
    04:00 +24°C° 0 mm 2 mps 692 mmHg 56%
    05:00 +24°C° 0 mm 2 mps 692 mmHg 55%
    06:00 +25°C° 0 mm 2 mps 692 mmHg 54%
    07:00 +27°C° 0 mm 1 mps 693 mmHg 46%
    08:00 +29°C° 0 mm 1 mps 693 mmHg 39%
    09:00 +30°C° 0 mm 1 mps 694 mmHg 31%
    10:00 +31°C° 0 mm 2 mps 693 mmHg 30%
    11:00 +32°C° 0 mm 2 mps 693 mmHg 30%
    12:00 +32°C° 0 mm 2 mps 693 mmHg 29%
    13:00 +34°C° 0 mm 2 mps 693 mmHg 30%
    14:00 +34°C° 0 mm 2 mps 693 mmHg 30%
    15:00 +34°C° 0 mm 2 mps 693 mmHg 31%
    16:00 +32°C° 0 mm 2 mps 693 mmHg 35%
    17:00 +32°C° 0 mm 1 mps 693 mmHg 39%
    18:00 +31°C° 0 mm 1 mps 692 mmHg 42%
    19:00 +29°C° 0 mm 1 mps 693 mmHg 44%
    20:00 +27°C° 0 mm 1 mps 693 mmHg 45%
    21:00 +26°C° 0 mm 1 mps 693 mmHg 46%
    22:00 +25°C° 0 mm 2 mps 693 mmHg 46%
    23:00 +25°C° 0 mm 2 mps 693 mmHg 46%

    Day after tomorrow, 26 June, Wednesday

    Time Temperature Precipitation Wind Pressure Humidity
    00:00 +25°C° 0 mm 2 mps 693 mmHg 46%
    01:00 +24°C° 0 mm 2 mps 693 mmHg 45%
    02:00 +24°C° 0 mm 2 mps 693 mmHg 44%
    03:00 +24°C° 0 mm 2 mps 693 mmHg 43%
    04:00 +24°C° 0 mm 2 mps 693 mmHg 44%
    05:00 +25°C° 0 mm 1 mps 693 mmHg 44%
    06:00 +25°C° 0 mm 1 mps 693 mmHg 45%
    07:00 +27°C° 0 mm 1 mps 694 mmHg 39%
    08:00 +29°C° 0 mm 2 mps 694 mmHg 33%
    09:00 +31°C° 0 mm 2 mps 694 mmHg 26%
    10:00 +31°C° 0 mm 2 mps 694 mmHg 26%
    11:00 +32°C° 0 mm 2 mps 694 mmHg 25%
    12:00 +34°C° 0 mm 3 mps 694 mmHg 25%
    13:00 +34°C° 0 mm 3 mps 694 mmHg 26%
    14:00 +35°C° 0 mm 3 mps 693 mmHg 27%
    15:00 +35°C° 0 mm 3 mps 693 mmHg 29%
    16:00 +34°C° 0 mm 3 mps 693 mmHg 34%
    17:00 +33°C° 0 mm 3 mps 692 mmHg 39%
    18:00 +31°C° 0 mm 3 mps 692 mmHg 44%
    19:00 +29°C° 0 mm 3 mps 692 mmHg 48%
    20:00 +27°C° 0 mm 2 mps 692 mmHg 53%
    21:00 +24°C° 0 mm 2 mps 692 mmHg 58%
    22:00 +24°C° 0 mm 2 mps 692 mmHg 58%
    23:00 +23°C° 0 mm 2 mps 691 mmHg 58%

    27 June, Thursday

    Time Temperature Precipitation Wind Pressure Humidity
    00:00 +23°C° 0 mm 1 mps 691 mmHg 59%
    01:00 +23°C° 0 mm 1 mps 691 mmHg 60%
    02:00 +21°C° 0 mm 2 mps 691 mmHg 61%
    03:00 +21°C° 0 mm 2 mps 691 mmHg 63%
    04:00 +22°C° 0.2 mm 1 mps 691 mmHg 64%
    05:00 +23°C° 0.2 mm 1 mps 691 mmHg 65%
    06:00 +23°C° 0.2 mm 1 mps 691 mmHg 65%
    07:00 +24°C° 0.2 mm 2 mps 691 mmHg 61%
    08:00 +25°C° 0.2 mm 2 mps 691 mmHg 56%
    09:00 +27°C° 0.2 mm 3 mps 691 mmHg 52%
    10:00 +28°C° 0 mm 3 mps 691 mmHg 50%
    11:00 +28°C° 0 mm 4 mps 691 mmHg 48%
    12:00 +29°C° 0 mm 4 mps 690 mmHg 47%
    13:00 +30°C° 0.1 mm 4 mps 690 mmHg 47%
    14:00 +30°C° 0.1 mm 4 mps 690 mmHg 46%
    15:00 +30°C° 0.1 mm 4 mps 689 mmHg 46%
    16:00 +29°C° 0.3 mm 4 mps 689 mmHg 50%
    17:00 +28°C° 0.3 mm 3 mps 689 mmHg 54%
    18:00 +27°C° 0.3 mm 3 mps 688 mmHg 58%
    19:00 +26°C° 0.2 mm 2 mps 689 mmHg 61%
    20:00 +24°C° 0.2 mm 2 mps 689 mmHg 65%
    21:00 +21°C° 0.2 mm 2 mps 689 mmHg 69%
    22:00 +21°C° 0.2 mm 2 mps 689 mmHg 70%
    23:00 +21°C° 0.2 mm 2 mps 688 mmHg 71%

    28 June, Friday

    Time Temperature Precipitation Wind Pressure Humidity
    00:00 +21°C° 0.2 mm 2 mps 688 mmHg 73%
    01:00 +22°C° 0 mm 1 mps 688 mmHg 74%
    02:00 +21°C° 0 mm 1 mps 688 mmHg 75%
    03:00 +19°C° 0 mm 0 mps 687 mmHg 76%
    04:00 +21°C° 0 mm 1 mps 687 mmHg 76%
    05:00 +21°C° 0 mm 1 mps 687 mmHg 75%
    06:00 +22°C° 0 mm 1 mps 687 mmHg 75%
    07:00 +23°C° 0 mm 1 mps 687 mmHg 68%
    08:00 +24°C° 0 mm 2 mps 687 mmHg 62%
    09:00 +26°C° 0 mm 2 mps 687 mmHg 56%
    10:00 +27°C° 0 mm 2 mps 687 mmHg 54%
    11:00 +27°C° 0 mm 2 mps 687 mmHg 51%
    12:00 +28°C° 0 mm 2 mps 686 mmHg 49%
    13:00 +29°C° 0 mm 2 mps 686 mmHg 48%
    14:00 +29°C° 0 mm 3 mps 685 mmHg 47%
    15:00 +30°C° 0 mm 3 mps 685 mmHg 46%
    16:00 +29°C° 0.2 mm 2 mps 685 mmHg 50%
    17:00 +28°C° 0.2 mm 2 mps 684 mmHg 54%
    18:00 +27°C° 0.2 mm 1 mps 684 mmHg 57%
    19:00 +25°C° 0.2 mm 1 mps 684 mmHg 61%
    20:00 +24°C° 0.2 mm 1 mps 685 mmHg 64%
    21:00 +23°C° 0.2 mm 1 mps 685 mmHg 67%
    22:00 +23°C° 0.2 mm 1 mps 685 mmHg 69%
    23:00 +23°C° 0.2 mm 1 mps 685 mmHg 71%

    29 June, Saturday

    Time Temperature Precipitation Wind Pressure Humidity
    00:00 +21°C° 0.2 mm 2 mps 685 mmHg 72%
    01:00 +22°C° 0.1 mm 1 mps 685 mmHg 73%
    02:00 +22°C° 0.1 mm 1 mps 684 mmHg 74%
    03:00 +22°C° 0.1 mm 1 mps 684 mmHg 75%
    04:00 +22°C° 0 mm 1 mps 684 mmHg 73%
    05:00 +23°C° 0 mm 1 mps 685 mmHg 71%
    06:00 +23°C° 0 mm 1 mps 685 mmHg 69%
    07:00 +25°C° 0 mm 1 mps 685 mmHg 64%
    08:00 +26°C° 0 mm 1 mps 685 mmHg 59%
    09:00 +27°C° 0 mm 2 mps 685 mmHg 54%
    10:00 +28°C° 0.1 mm 2 mps 685 mmHg 53%
    11:00 +29°C° 0.1 mm 2 mps 685 mmHg 52%
    12:00 +29°C° 0.1 mm 2 mps 685 mmHg 52%
    13:00 +29°C° 0.5 mm 3 mps 685 mmHg 51%
    14:00 +30°C° 0.5 mm 3 mps 684 mmHg 51%
    15:00 +30°C° 0.5 mm 3 mps 684 mmHg 51%
    16:00 +29°C° 0.8 mm 3 mps 684 mmHg 56%
    17:00 +28°C° 0.8 mm 2 mps 684 mmHg 61%
    18:00 +27°C° 0.8 mm 2 mps 684 mmHg 66%
    19:00 +25°C° 2.3 mm 2 mps 685 mmHg 73%
    20:00 +24°C° 2.3 mm 1 mps 686 mmHg 81%
    21:00 +22°C° 2.3 mm 1 mps 686 mmHg 88%
    22:00 +22°C° 0.2 mm 1 mps 686 mmHg 88%
    23:00 +22°C° 0.2 mm 1 mps 686 mmHg 87%
    Show more